| time (UTC) | temp F | wind direction | speed MPH | gust MPH | rain 1hr in | rain 24hr in | rain mn in | humidity % | barometer mb |
| 20260903104539 | 56 | 0.0 | 0.0 | 0.05 | 0.06 | 0.06 | 95 | 1016.6 | |
| 20260903103036 | 56 | 0.0 | 0.0 | 0.05 | 0.05 | 0.05 | 95 | 1016.7 | |
| 20260903101530 | 56 | 0.0 | 0.0 | 0.04 | 0.04 | 0.04 | 94 | 1016.7 | |
| 20260903100030 | 56 | 0.0 | 0.0 | 0.04 | 0.04 | 0.04 | 94 | 1016.7 | |
| 20260903094521 | 55 | 0.0 | 0.0 | 0.01 | 0.01 | 0.01 | 93 | 1016.6 | |
| 20260903093017 | 55 | 0.0 | 0.0 | 0.00 | 0.00 | 0.00 | 93 | 1016.7 | |
| 20260903091517 | 55 | 0.0 | 0.0 | 0.00 | 0.00 | 0.00 | 93 | 1016.8 | |
| 20260903090015 | 54 | 0.0 | 0.0 | 0.00 | 0.00 | 0.00 | 92 | 1016.9 | |
| 20260903084512 | 54 | 0.0 | 0.0 | 0.00 | 0.00 | 0.00 | 91 | 1017.0 | |
| 20260903083102 | 54 | 0.0 | 0.0 | 0.00 | 0.00 | 0.00 | 91 | 1017.1 | |
| 20260903081555 | 54 | 0.0 | 0.0 | 0.00 | 0.00 | 0.00 | 90 | 1017.0 | |
| 20260903080052 | 54 | 0.0 | 0.0 | 0.00 | 0.00 | 0.00 | 90 | 1017.2 | |
| 20260903074551 | 54 | 0.0 | 0.0 | 0.00 | 0.00 | 0.00 | 90 | 1017.3 | |
| 20260903073042 | 53 | 0.0 | 0.0 | 0.00 | 0.00 | 0.00 | 89 | 1017.4 | |
| 20260903071538 | 53 | 0.0 | 0.0 | 0.00 | 0.00 | 0.00 | 89 | 1017.7 | |
| 20260903070033 | 53 | 0.0 | 0.0 | 0.00 | 0.00 | 0.00 | 90 | 1018.1 | |
| 20260903064531 | 53 | 0.0 | 0.0 | 0.00 | 0.00 | 0.00 | 90 | 1018.0 | |
| 20260903063029 | 52 | 0.0 | 0.0 | 0.00 | 0.00 | 0.00 | 92 | 1018.1 | |
| 20260903061532 | 51 | 0.0 | 0.0 | 0.00 | 0.00 | 0.00 | 93 | 1018.3 | |
| 20260903060018 | 50 | 0.0 | 0.0 | 0.00 | 0.00 | 0.00 | 93 | 1018.4 | |
| 20260903054513 | 50 | 0.0 | 0.0 | 0.00 | 0.00 | 0.00 | 93 | 1018.7 | |
| 20260903053007 | 50 | 0.0 | 0.0 | 0.00 | 0.00 | 0.00 | 92 | 1018.8 | |
| 20260903051504 | 50 | 0.0 | 0.0 | 0.00 | 0.00 | 0.00 | 92 | 1019.0 | |
| 20260903050104 | 50 | 0.0 | 0.0 | 0.00 | 0.00 | 0.00 | 91 | 1018.9 | |
| 20260903044601 | 50 | 0.0 | 0.0 | 0.00 | 0.00 | 0.00 | 90 | 1019.2 | |
| 20260903043108 | 50 | 0.0 | 0.0 | 0.00 | 0.00 | 0.00 | 90 | 1019.1 | |
| 20260903041551 | 51 | 0.0 | 0.0 | 0.00 | 0.00 | 0.00 | 89 | 1018.9 | |
| 20260903040040 | 51 | 0.0 | 0.0 | 0.00 | 0.00 | 0.00 | 89 | 1018.9 | |
| 20260903034536 | 52 | 0.0 | 0.0 | 0.00 | 0.00 | 0.00 | 89 | 1018.9 | |
| 20260903033032 | 52 | 0.0 | 0.0 | 0.00 | 0.00 | 0.00 | 88 | 1018.9 | |
| 20260903031528 | 53 | 0.0 | 0.0 | 0.00 | 0.00 | 0.00 | 86 | 1019.3 | |
| 20260903030024 | 55 | 0.0 | 0.0 | 0.00 | 0.00 | 0.00 | 83 | 1019.3 | |
| 20260903024519 | 56 | 0.0 | 0.0 | 0.00 | 0.00 | 0.00 | 81 | 1019.4 | |
| 20260903023016 | 56 | 0.0 | 0.0 | 0.00 | 0.00 | 0.00 | 81 | 1019.5 | |
| 20260903021512 | 55 | 0.0 | 0.0 | 0.00 | 0.00 | 0.00 | 82 | 1019.6 | |
| 20260903020006 | 56 | 0.0 | 0.0 | 0.00 | 0.00 | 0.00 | 81 | 1019.7 | |
| 20260903014502 | 56 | 0.0 | 0.0 | 0.00 | 0.00 | 0.00 | 80 | 1019.6 | |
| 20260903013058 | 56 | 0.0 | 0.0 | 0.00 | 0.00 | 0.00 | 82 | 1019.5 | |
| 20260903011557 | 55 | 0.0 | 0.0 | 0.00 | 0.00 | 0.00 | 84 | 1019.5 | |
| 20260903010049 | 56 | 0.0 | 0.0 | 0.00 | 0.00 | 0.00 | 83 | 1019.6 | |
| 20260903004544 | 56 | 0.0 | 0.0 | 0.00 | 0.00 | 0.00 | 82 | 1019.5 | |
| 20260903003040 | 56 | 0.0 | 0.0 | 0.00 | 0.00 | 0.00 | 82 | 1019.6 | |
| 20260903001536 | 57 | 0.0 | 0.0 | 0.00 | 0.00 | 0.00 | 80 | 1019.7 | |
| 20260903000034 | 57 | 0.0 | 0.0 | 0.00 | 0.00 | 0.00 | 81 | 1019.7 | |
| 20260902234527 | 56 | 0.0 | 0.0 | 0.00 | 0.00 | 0.00 | 83 | 1019.4 | |
| 20260902233023 | 57 | 0.0 | 0.0 | 0.00 | 0.00 | 0.00 | 81 | 1019.4 | |
| 20260902231524 | 59 | 0.0 | 0.0 | 0.00 | 0.00 | 0.00 | 77 | 1019.6 | |
| 20260902230013 | 61 | 0.0 | 0.0 | 0.00 | 0.00 | 0.00 | 77 | 1019.7 | |
| 20260902224511 | 62 | 0.0 | 0.0 | 0.00 | 0.00 | 0.00 | 69 | 1019.8 | |
| 20260902223005 | 64 | 0.0 | 0.0 | 0.00 | 0.00 | 0.00 | 66 | 1019.9 | |
| 20260902221502 | 65 | 0.0 | 0.0 | 0.00 | 0.00 | 0.00 | 64 | 1020.0 | |
| 20260902220100 | 65 | 0.0 | 0.0 | 0.00 | 0.00 | 0.00 | 62 | 1020.1 | |
| 20260902214556 | 66 | 0.0 | 0.0 | 0.00 | 0.00 | 0.00 | 61 | 1020.2 | |
| 20260902213049 | 66 | 0.0 | 0.0 | 0.00 | 0.00 | 0.00 | 60 | 1020.2 | |
| 20260902211553 | 66 | 0.0 | 0.0 | 0.00 | 0.00 | 0.00 | 59 | 1020.3 | |
| 20260902210107 | 67 | 0.0 | 0.0 | 0.00 | 0.00 | 0.00 | 60 | 1020.5 | |
| 20260902204540 | 68 | 0.0 | 0.0 | 0.00 | 0.00 | 0.00 | 55 | 1020.5 | |
| 20260902203030 | 68 | 0.0 | 0.0 | 0.00 | 0.00 | 0.00 | 53 | 1020.7 | |
| 20260902201530 | 68 | 0.0 | 0.0 | 0.00 | 0.00 | 0.00 | 54 | 1020.8 | |
| 20260902200021 | 69 | 0.0 | 0.0 | 0.00 | 0.00 | 0.00 | 54 | 1020.8 | |
| 20260902194517 | 70 | 0.0 | 0.0 | 0.00 | 0.00 | 0.00 | 51 | 1020.6 | |
| 20260902193013 | 69 | 0.0 | 0.0 | 0.00 | 0.00 | 0.00 | 52 | 1020.9 | |
| 20260902191509 | 68 | 0.0 | 0.0 | 0.00 | 0.00 | 0.00 | 55 | 1021.0 | |
| 20260902190006 | 69 | 0.0 | 0.0 | 0.00 | 0.00 | 0.00 | 51 | 1021.0 | |
| 20260902184600 | 68 | 0.0 | 0.0 | 0.00 | 0.00 | 0.00 | 57 | 1021.2 | |
| 20260902183055 | 68 | 0.0 | 0.0 | 0.00 | 0.00 | 0.00 | 55 | 1021.5 | |
| 20260902181651 | 67 | 0.0 | 0.0 | 0.00 | 0.00 | 0.00 | 56 | 1021.7 | |
| 20260902180106 | 67 | 0.0 | 0.0 | 0.00 | 0.00 | 0.00 | 59 | 1022.0 | |
| 20260902174540 | 68 | 0.0 | 0.0 | 0.00 | 0.00 | 0.00 | 56 | 1021.9 | |
| 20260902173037 | 69 | 0.0 | 0.0 | 0.00 | 0.00 | 0.00 | 63 | 1021.9 | |
| 20260902171533 | 67 | 0.0 | 0.0 | 0.00 | 0.00 | 0.00 | 62 | 1022.0 | |
| 20260902170029 | 66 | 0.0 | 0.0 | 0.00 | 0.00 | 0.00 | 62 | 1022.0 | |
| 20260902164523 | 67 | 0.0 | 0.0 | 0.00 | 0.00 | 0.00 | 58 | 1022.2 | |
| 20260902163025 | 67 | 0.0 | 0.0 | 0.00 | 0.00 | 0.00 | 58 | 1022.2 | |
| 20260902161515 | 67 | 0.0 | 0.0 | 0.00 | 0.00 | 0.00 | 63 | 1022.4 | |
| 20260902160010 | 66 | 0.0 | 0.0 | 0.00 | 0.00 | 0.00 | 65 | 1022.5 | |
| 20260902154506 | 66 | 0.0 | 0.0 | 0.00 | 0.00 | 0.00 | 68 | 1022.6 | |
| 20260902153004 | 65 | 0.0 | 0.0 | 0.00 | 0.00 | 0.00 | 67 | 1022.7 | |
| 20260902151601 | 64 | 0.0 | 0.0 | 0.00 | 0.00 | 0.00 | 70 | 1022.8 | |
| 20260902150053 | 63 | 0.0 | 0.0 | 0.00 | 0.00 | 0.00 | 68 | 1022.8 | |
| 20260902144600 | 63 | 0.0 | 0.0 | 0.00 | 0.00 | 0.00 | 74 | 1022.8 | |
| 20260902143046 | 62 | 0.0 | 0.0 | 0.00 | 0.00 | 0.00 | 74 | 1022.8 | |
| 20260902141541 | 61 | 0.0 | 0.0 | 0.00 | 0.00 | 0.00 | 78 | 1023.0 | |
| 20260902140036 | 60 | 0.0 | 0.0 | 0.00 | 0.00 | 0.00 | 79 | 1023.0 | |
| 20260902134535 | 60 | 0.0 | 0.0 | 0.00 | 0.00 | 0.00 | 84 | 1023.0 | |
| 20260902133027 | 58 | 0.0 | 0.0 | 0.00 | 0.00 | 0.00 | 86 | 1023.1 | |
| 20260902131523 | 56 | 0.0 | 0.0 | 0.00 | 0.00 | 0.00 | 90 | 1023.2 | |
| 20260902130018 | 54 | 0.0 | 0.0 | 0.00 | 0.00 | 0.00 | 94 | 1023.3 | |
| 20260902124514 | 53 | 0.0 | 0.0 | 0.00 | 0.00 | 0.00 | 94 | 1023.1 | |
| 20260902123021 | 53 | 0.0 | 0.0 | 0.00 | 0.00 | 0.00 | 95 | 1023.0 | |
| 20260902121505 | 52 | 0.0 | 0.0 | 0.00 | 0.00 | 0.00 | 96 | 1023.1 | |
| 20260902114557 | 51 | 0.0 | 0.0 | 0.00 | 0.00 | 0.00 | 96 | 1023.2 | |
| 20260902113055 | 50 | 0.0 | 0.0 | 0.00 | 0.00 | 0.00 | 96 | 1023.2 | |
| 20260902111549 | 50 | 0.0 | 0.0 | 0.00 | 0.00 | 0.00 | 97 | 1023.3 | |
| 20260902110043 | 50 | 0.0 | 0.0 | 0.00 | 0.00 | 0.00 | 97 | 1023.3 |